カタログに戻る

STARLINK-33885

運用中通信VLEO
NORAD 63886·PAYLOAD·🇺🇸 United States

打ち上げ May 10, 2025 から Vandenberg Space Force Base

Loading…

次のパス (今後24時間)

TLE

最新Source: CelesTrak SupGP

元期: Sep 15, 2026, 03:16 UTC

1 63886C 25094Y   26258.13659722 -.00014883  00000+0 -51779-3 0  2584
2 63886  69.9986 115.2071 0003020 272.9332 327.2504 15.29582247    19

AllMySatでSTARLINK-33885をリアルタイム追跡

Download on the App Store